Regional Weather Roundup
Issued by NWS Columbia, SC

Home | Current Version | Previous Version | Text Only | Print | Product List | Glossary On
Versions: 1 2 3 4 5 6 7 8 9 10 11 12 13 14 15 16 17 18 19 20 21 22 23 24 25 26 27 28 29 30 31 32 33 34 35 36 37 38 39 40 41 42 43 44 45 46 47 48 49 50
000
ASUS42 KCAE 310810
RWRCAE
REGIONAL WEATHER ROUNDUP
NATIONAL WEATHER SERVICE COLUMBIA SC
400 AM EDT SUN AUG 31 2014

NOTE: "FAIR" INDICATES FEW OR NO CLOUDS BELOW 12,000 FEET WITH NO
SIGNIFICANT WEATHER AND/OR OBSTRUCTIONS TO VISIBILITY.

NOT ALL STATIONS ARE QUALITY CONTROLLED BY THE NATIONAL
WEATHER SERVICE. USE DATA WITH CAUTION...ESPECIALLY
DEWPOINT OBSERVATIONS.

SCZ001>056-GAZ040-063>065-077-310900-
...UPSTATE SOUTH CAROLINA...

CITY           SKY/WX    TMP DP  RH WIND       PRES   REMARKS
ANDERSON       LGT RAIN  73  72  96 CALM      30.16S
LIBERTY        LGT RAIN  70  32  24 SE6       30.15F
SPARTANBURG    FAIR      75  72  88 W5        30.15S
CLEMSON        RAIN      73  69  87 S3        30.17S
GREENVILLE     TSTM      71  68  90 W3        30.19R FOG
GREENWOOD      CLOUDY    78  71  79 W8        30.17R
GREER          HVY RAIN  71  69  93 W12       30.17R
ROCK HILL      CLOUDY    75  71  87 S7        30.17R
LAURENS        PTSUNNY   75  75 100 S3        30.16S


...CENTRAL SOUTH CAROLINA...

CITY           SKY/WX    TMP DP  RH WIND       PRES   REMARKS
COLUMBIA APT   MOCLDY    76  71  85 CALM      30.14S
COLUMBIA OWENS MOCLDY    76  71  85 CALM      30.15S
DARLINGTON     MOCLDY    72  68  88 CALM      30.16F
FLORENCE       MOCLDY    73  70  90 CALM      30.15S
MCENTIRE ANGB  MOCLDY    72  72  99 CALM      30.14F
ORANGEBURG     MOCLDY    74  71  91 CALM      30.14S
SUMTER SHAW    MOCLDY    73  73  99 E3        30.13F
NEWBERRY       CLOUDY    77  72  83 S3        30.17S
AIKEN          FAIR      75  75 100 CALM      30.17F
BARNWELL       FAIR      75  73  94 CALM      30.15S
MANNING        FAIR      72 N/A N/A CALM      30.14F
CAMDEN         FAIR      72  72 100 CALM      30.16S
LANCASTER      CLOUDY    73  73 100 S5        30.16S
WINNSBORO      FAIR      73  72  94 S5        30.15S


...EASTERN AND COASTAL SOUTH CAROLINA...

CITY           SKY/WX    TMP DP  RH WIND       PRES   REMARKS
MYRTLE BEACH   PTCLDY    81  73  78 SE7       30.14F
N MYRTLE BCH   PTCLDY    81  75  82 S3        30.15S
CONWAY         FAIR      70  70 100 CALM      30.15S
HARTSVILLE     FAIR      73 N/A N/A CALM      30.17S
FLORENCE       MOCLDY    73  70  90 CALM      30.15S
DARLINGTON     MOCLDY    72  68  88 CALM      30.16F
CHARLESTON APT PTCLDY    77  74  90 CALM      30.13F
MOUNT PLEASANT FAIR      75  75 100 CALM      30.13F
WALTERBORO     MOSUNNY   73 N/A N/A CALM      30.14S
BEAUFORT       PTCLDY    78  74  87 CALM      30.12F


...EASTERN GEORGIA...

CITY           SKY/WX    TMP DP  RH WIND       PRES   REMARKS
AUGUSTA BUSH F CLOUDY    74  72  93 CALM      30.13R
AUGUSTA DANIEL CLOUDY    77  73  87 SE5       30.15S
THOMSON        CLOUDY    80  77  92 W5        30.20R
WASHINGTON     TSTM      77  77 100 CALM      30.16S
SYLVANIA       MOSUNNY   72  72 100 CALM      30.14S FOG
STATESBORO     PTCLDY    74  74 100 CALM      30.13F
SAVANNAH       PTCLDY    78  74  87 CALM      30.13S


...SOUTHERN NORTH CAROLINA...

CITY           SKY/WX    TMP DP  RH WIND       PRES   REMARKS
CHARLOTTE      CLOUDY    75  69  81 S8        30.16S
MONROE         MOCLDY    74  71  91 SW5       30.16S
WADESBORO      PTSUNNY   73  71  93 CALM      30.15S
ROCKINGHAM     PTSUNNY   73  72  96 CALM      30.16S
RUTHERFORDTON  CLOUDY    74  70  88 CALM      30.18R
ASHEVILLE      LGT RAIN  69  67  93 N5        30.22S

$$



USA.gov is the U.S. government's official web portal to all federal, state and local government web resources and services.